{"data":{"norad_id":57853,"intl_designator":"2023-141P","name":"STARLINK-30404","alt_names":[],"object_type":"PAYLOAD","status":"ACTIVE","operator":null,"country":"US","launch_date":"2023-09-12","launch_site_code":"AFWTR","launch_vehicle":null,"mission":null,"orbit_class":"UNKNOWN","rcs_meters":null,"size_class":null,"mass_kg":null,"dimensions":null,"purposes":["comms"],"wikipedia_slug":null,"has_3d_model":false,"image_url":null,"decayed_at":null,"tle_current":{"epoch":"2026-05-25T02:38:39.315264Z","epoch_age_seconds":69551,"freshness":"FRESH","line1":"1 57853U 23141P   26145.11017726  .00000067  00000+0  14395-4 0  9990","line2":"2 57853  53.1609 288.7789 0001102  98.1432 261.9694 15.30189653152033","mean_motion":15.30189653,"eccentricity":0.0001102,"inclination_deg":53.1609,"raan_deg":288.7789,"arg_perigee_deg":98.1432,"mean_anomaly_deg":261.9694,"bstar":1.4395e-5,"rev_number":15203,"period_min":94.105982038032,"perigee_km":474.49072106773,"apogee_km":476.00120667297,"semimajor_km":6853.3829638704,"source":"CELESTRAK","updated_at":"2026-05-25T13:38:18.415715Z"}}}